Wind_Speed
24 25 26 26 26 27 27 27 28 28 29 29 31 32 32 31 31 32 32 33 34 34 34 35 35 35 35 35 34 34 34 34 34 34 34 34 33 34 33 33 32 32 32
24 24 25 26 26 27 29 29 28 29 30 30 31 32 33 32 31 32 31 33 35 35 35 36 36 36 36 36 36 37 37 36 35 35 35 35 35 35 34 34 34 33 33
25 25 25 25 26 26 27 28 28 28 30 30 31 33 34 34 32 33 33 33 35 37 37 37 37 37 37 37 37 38 38 38 37 37 37 36 35 34 34 34 34 34 33
26 26 25 25 25 26 26 26 27 28 30 31 32 34 34 34 33 33 34 34 36 38 39 39 38 38 39 38 39 39 39 39 39 38 37 36 35 34 34 34 34 34 34
29 27 27 27 26 26 27 27 28 28 30 31 32 33 34 35 35 34 35 35 36 38 39 39 39 39 39 39 39 39 39 38 38 38 37 37 36 36 36 36 36 36 36
30 30 29 28 28 27 28 29 29 29 30 31 33 33 33 35 36 35 35 36 37 38 40 40 40 40 40 40 41 40 40 40 39 39 39 39 38 37 37 37 38 37 38
31 31 31 29 30 29 29 30 30 31 31 31 32 33 34 36 36 36 36 38 39 39 39 39 39 40 40 39 40 41 41 41 41 41 41 41 40 40 40 40 40 40 40
34 33 33 31 30 31 32 31 31 31 32 33 34 34 35 36 37 37 36 37 38 38 39 40 40 41 41 41 41 43 43 42 42 43 42 42 43 42 42 42 42 42 41
35 34 34 33 32 32 33 33 33 33 33 34 35 36 37 37 37 37 36 36 37 38 40 41 40 41 42 42 42 43 44 43 43 45 45 44 44 44 44 44 44 43 42
34 35 35 35 34 34 34 35 35 35 35 36 37 38 38 39 38 38 38 38 38 39 40 41 41 42 42 43 43 44 44 44 44 44 45 45 45 45 45 45 45 44 44
34 35 35 36 36 36 36 36 37 38 37 37 38 39 40 40 40 40 40 40 40 40 41 41 42 43 44 44 44 45 46 46 46 46 46 46 46 46 46 47 46 46 46
36 36 36 36 37 37 38 38 39 39 39 39 40 40 41 41 41 41 41 42 42 42 43 43 44 45 45 45 46 46 47 47 47 48 48 47 48 48 49 48 48 47 47
36 37 37 37 37 38 39 39 39 40 40 40 41 41 42 42 42 43 43 43 42 43 44 45 45 46 47 46 46 46 47 47 47 48 48 48 49 48 49 49 49 49 49
38 38 38 38 39 40 41 42 41 41 41 42 42 42 43 43 43 44 44 44 44 44 45 45 46 46 47 47 48 48 48 48 48 49 49 50 51 50 50 50 51 51 51
39 39 39 40 41 42 42 43 44 43 43 43 44 44 44 45 45 45 46 46 46 46 46 46 46 47 48 49 49 49 50 50 50 50 51 52 53 53 53 53 53 52 52
40 41 41 41 43 43 44 45 45 45 46 46 45 45 45 46 46 46 46 47 47 48 49 49 48 48 49 49 50 50 50 50 50 51 52 53 54 55 54 54 54 54 53
41 41 42 43 44 44 45 46 46 46 47 47 47 47 47 47 47 48 48 48 49 49 50 50 50 50 50 50 50 50 50 50 51 51 51 52 53 54 55 55 55 55 55
42 42 43 44 45 46 47 48 48 48 49 49 49 49 49 50 50 50 50 50 51 51 51 51 51 51 52 52 52 52 52 52 52 52 52 53 54 54 55 55 55 56 56
43 43 44 45 46 47 48 49 49 49 50 50 51 51 51 51 51 52 52 52 52 52 52 52 52 53 53 53 53 53 53 53 53 53 53 54 54 55 56 56 56 57 57
44 44 45 45 46 47 48 49 49 50 50 50 51 51 51 51 52 52 53 52 52 53 53 52 52 53 53 53 54 54 54 54 54 54 54 54 55 56 56 57 57 57 57
46 46 46 46 47 47 48 48 48 48 48 49 50 50 50 50 51 51 52 52 52 52 52 52 52 52 53 52 53 54 54 54 54 54 54 54 55 56 56 56 56 57 57
47 47 47 46 46 47 47 47 48 47 48 49 49 49 49 49 49 50 50 51 51 51 51 52 52 52 52 52 52 52 53 53 53 53 54 54 54 55 55 55 55 55 56
46 47 47 46 46 46 46 47 47 48 48 48 49 49 49 49 48 49 49 50 50 50 50 51 51 51 51 51 51 52 52 52 53 53 53 53 53 53 53 53 54 54 55
44 45 45 45 45 45 46 46 47 48 48 48 48 48 48 48 47 47 48 49 49 49 49 49 49 50 50 51 51 52 52 53 53 52 52 52 51 51 51 52 52 52 53
43 43 44 44 44 44 45 45 46 47 47 47 47 47 48 48 48 47 47 48 48 48 48 48 49 49 49 50 51 51 51 52 52 52 51 51 51 50 51 51 51 50 51
42 43 43 44 44 44 44 45 45 45 45 45 46 46 47 47 47 47 47 47 47 47 47 47 47 48 48 49 50 50 51 51 51 51 50 50 50 49 49 50 49 49 49
Wind_Direction
241 241 240 241 245 245 243 243 241 238 237 239 239 240 239 241 244 243 243 242 244 247 249 251 251 251 251 251 253 254 256 259 260 261 262 264 266 269 271 273 274 276 277
243 241 241 245 248 247 245 243 244 240 238 240 241 241 241 243 246 245 246 246 246 247 249 250 251 251 251 252 253 255 256 258 260 262 262 264 267 269 270 272 273 273 275
244 243 244 246 247 246 247 246 245 242 241 242 242 243 243 244 247 248 249 249 248 248 248 250 251 252 252 253 254 256 258 258 261 263 263 264 266 268 269 270 272 273 275
246 244 245 246 248 249 250 249 248 248 245 244 244 245 245 245 250 252 250 251 251 250 249 251 252 252 252 253 254 256 258 259 260 261 263 264 266 267 268 269 271 273 275
248 248 250 249 250 251 252 252 250 249 248 247 248 248 248 248 251 253 253 253 253 252 250 252 253 252 252 252 254 255 257 258 260 262 263 263 264 265 267 269 271 272 274
250 250 253 252 251 252 252 253 253 252 249 248 248 249 251 252 254 255 255 254 255 254 252 252 253 252 253 254 254 255 257 258 262 263 263 264 263 264 266 268 269 271 274
251 253 254 253 251 252 253 254 255 254 252 250 251 251 253 253 255 257 257 256 255 255 254 253 253 253 254 255 257 256 256 258 260 262 263 263 264 265 267 268 270 271 273
253 254 255 256 255 254 254 255 256 256 255 254 255 255 256 257 258 259 259 257 255 256 255 253 254 254 255 256 257 257 256 258 259 261 262 263 264 265 266 268 270 272 273
254 254 255 256 257 257 255 256 257 258 258 257 258 258 258 259 260 259 258 257 257 257 256 255 255 255 255 255 257 257 257 258 260 261 262 264 265 265 266 269 271 272 272
253 254 255 256 257 258 258 257 258 259 260 259 259 260 261 261 262 260 258 259 258 257 257 256 257 257 255 256 257 259 259 259 260 262 263 265 266 265 267 268 270 271 271
252 253 254 254 256 257 258 259 259 260 262 262 262 261 261 261 263 262 260 259 259 260 260 258 259 258 258 259 258 259 260 259 261 262 263 264 265 265 266 268 269 270 270
251 251 253 255 256 257 258 260 261 262 262 263 263 262 261 262 262 262 261 260 262 262 262 261 259 258 260 260 260 261 262 262 262 263 264 264 265 265 266 267 268 269 270
253 253 254 255 256 257 258 260 261 262 263 263 264 263 262 261 261 261 260 260 262 263 263 263 261 261 262 262 261 261 262 262 263 263 264 265 266 267 267 267 268 270 270
255 255 255 256 256 257 258 260 262 263 263 263 264 264 263 262 262 262 261 262 262 263 264 264 263 264 264 263 263 263 264 264 264 264 265 266 267 269 269 269 269 269 270
254 255 255 255 256 258 260 261 263 265 265 265 266 267 266 265 265 264 264 263 263 263 264 264 264 264 264 264 265 265 265 265 265 265 266 267 268 270 271 271 270 270 270
255 256 256 257 257 258 260 262 264 265 265 265 266 267 266 265 265 264 264 264 264 264 265 266 265 266 266 266 266 265 266 266 266 266 267 267 268 269 270 271 270 270 270
256 257 257 258 260 260 262 263 263 264 265 265 266 267 268 267 267 267 266 265 264 265 266 266 267 268 268 268 267 267 267 267 268 268 268 268 269 268 269 269 269 269 269
257 258 258 259 261 262 263 263 264 264 265 266 267 268 269 268 268 267 266 266 265 266 266 267 267 268 268 268 268 268 268 268 268 269 270 269 269 268 268 268 268 268 269
259 260 260 261 261 262 263 264 265 266 266 267 268 268 269 268 268 267 266 266 266 267 267 267 267 268 268 267 268 268 268 269 269 269 270 270 269 269 268 268 269 268 269
260 260 261 261 261 262 263 264 264 265 266 267 268 268 269 270 269 268 267 266 266 267 268 268 268 268 268 268 268 268 269 270 270 270 270 270 270 269 269 269 269 269 269
261 261 262 262 262 263 264 265 265 265 266 266 268 269 270 270 270 269 268 267 267 267 267 268 267 268 268 268 268 269 269 270 270 270 269 269 269 268 269 269 269 269 270
261 261 262 263 263 264 265 266 266 266 267 267 268 269 270 271 271 270 269 267 267 267 268 268 268 268 268 269 270 270 270 270 270 270 269 269 268 268 269 269 269 270 270
262 262 262 263 263 264 265 266 266 266 268 268 268 269 270 271 272 271 269 268 267 268 268 269 268 268 269 269 270 270 271 270 270 270 269 269 269 269 269 269 269 270 271
264 262 262 262 263 264 265 265 267 267 268 269 270 270 270 271 272 272 271 270 269 269 269 269 269 269 269 270 271 271 271 271 270 270 269 269 269 269 269 270 270 271 272
263 262 262 263 263 265 266 267 268 269 269 270 270 271 271 272 272 272 272 271 270 270 270 270 271 271 271 271 271 271 271 271 270 269 269 269 269 269 270 271 271 271 271
263 263 263 264 265 267 268 268 269 270 270 271 271 272 272 272 273 273 272 271 272 271 272 272 273 273 273 273 272 272 271 271 270 269 269 269 269 270 270 270 270 271 271
Height
5711 5713 5715 5718 5720 5721 5723 5725 5728 5731 5734 5738 5742 5745 5748 5752 5755 5757 5760 5762 5764 5767 5769 5772 5774 5776 5778 5780 5782 5784 5786 5788 5789 5791 5792 5793 5794 5794 5795 5795 5795 5796 5796
5707 5709 5711 5713 5715 5717 5719 5721 5723 5726 5729 5732 5736 5739 5742 5745 5748 5750 5753 5755 5757 5759 5762 5764 5766 5768 5769 5772 5774 5776 5778 5780 5782 5783 5784 5785 5787 5787 5788 5788 5788 5788 5788
5702 5705 5707 5709 5711 5712 5714 5716 5718 5720 5723 5726 5729 5732 5736 5739 5741 5744 5746 5748 5749 5752 5754 5756 5758 5760 5761 5763 5766 5769 5771 5772 5774 5775 5777 5778 5779 5780 5781 5781 5781 5781 5781
5697 5699 5701 5703 5705 5707 5708 5710 5712 5715 5718 5720 5723 5726 5730 5732 5735 5737 5739 5740 5742 5744 5746 5748 5750 5752 5753 5756 5758 5760 5763 5764 5765 5767 5768 5770 5771 5772 5773 5774 5774 5774 5774
5692 5694 5696 5697 5699 5701 5703 5704 5707 5709 5712 5715 5717 5720 5723 5725 5727 5729 5731 5732 5733 5735 5737 5739 5741 5743 5745 5747 5749 5751 5754 5755 5757 5758 5760 5761 5762 5764 5765 5766 5766 5766 5766
5685 5688 5690 5692 5693 5695 5697 5699 5701 5703 5706 5708 5711 5713 5716 5718 5720 5721 5722 5723 5725 5726 5728 5730 5732 5734 5736 5738 5740 5743 5744 5746 5748 5749 5751 5752 5753 5755 5756 5757 5758 5758 5758
5678 5681 5683 5685 5687 5689 5691 5692 5694 5697 5699 5702 5704 5706 5708 5710 5712 5713 5714 5715 5716 5717 5719 5721 5723 5725 5727 5729 5731 5733 5735 5737 5738 5740 5741 5742 5744 5745 5746 5747 5748 5749 5749
5672 5674 5676 5678 5680 5682 5684 5686 5688 5690 5692 5694 5696 5698 5700 5702 5703 5704 5706 5706 5707 5708 5709 5711 5714 5716 5717 5719 5721 5723 5725 5727 5728 5729 5731 5732 5734 5735 5736 5737 5738 5739 5740
5664 5667 5669 5671 5673 5675 5677 5679 5681 5682 5684 5686 5688 5689 5691 5692 5694 5695 5696 5697 5698 5699 5700 5702 5703 5705 5707 5709 5711 5713 5715 5716 5718 5719 5720 5722 5723 5724 5725 5726 5728 5729 5729
5656 5658 5660 5663 5665 5667 5669 5670 5673 5674 5676 5677 5679 5680 5682 5683 5683 5685 5686 5687 5688 5689 5690 5691 5693 5694 5696 5698 5700 5702 5704 5705 5707 5708 5709 5711 5712 5713 5714 5715 5716 5717 5718
5647 5649 5651 5654 5656 5658 5659 5661 5663 5665 5666 5667 5669 5670 5671 5672 5673 5674 5675 5676 5677 5679 5680 5681 5683 5684 5685 5687 5689 5691 5693 5694 5696 5697 5698 5699 5700 5701 5702 5703 5704 5705 5706
5638 5640 5642 5644 5646 5648 5650 5651 5653 5655 5656 5657 5659 5659 5660 5661 5662 5663 5664 5665 5667 5668 5669 5671 5672 5673 5674 5676 5677 5680 5681 5682 5684 5685 5686 5687 5688 5689 5690 5691 5692 5692 5693
5628 5630 5632 5634 5636 5638 5639 5641 5643 5644 5645 5646 5647 5648 5649 5650 5651 5652 5653 5654 5655 5657 5658 5659 5660 5661 5662 5663 5665 5667 5669 5670 5671 5673 5674 5675 5676 5677 5677 5678 5679 5679 5679
5618 5620 5622 5624 5625 5627 5628 5630 5631 5633 5634 5635 5636 5636 5637 5638 5639 5640 5641 5642 5643 5645 5646 5647 5648 5649 5650 5651 5652 5654 5656 5657 5658 5660 5661 5662 5663 5664 5664 5665 5665 5665 5665
5608 5610 5612 5613 5615 5616 5617 5619 5620 5621 5622 5623 5624 5625 5625 5626 5626 5627 5628 5629 5630 5631 5632 5633 5635 5636 5637 5638 5639 5641 5642 5643 5645 5646 5647 5648 5649 5649 5650 5650 5651 5651 5651
5597 5599 5600 5602 5604 5605 5606 5607 5608 5609 5610 5611 5611 5612 5613 5613 5613 5614 5615 5616 5617 5618 5619 5619 5621 5622 5623 5624 5625 5626 5628 5629 5631 5632 5633 5633 5634 5634 5634 5635 5635 5635 5636
5585 5587 5589 5590 5591 5593 5594 5595 5596 5596 5597 5598 5598 5599 5599 5599 5600 5600 5601 5602 5603 5604 5605 5606 5607 5608 5609 5610 5611 5612 5613 5615 5616 5617 5618 5618 5618 5618 5619 5619 5620 5620 5620
5573 5575 5576 5577 5578 5579 5580 5581 5582 5583 5583 5584 5585 5585 5585 5585 5585 5586 5586 5587 5588 5589 5590 5591 5592 5594 5595 5595 5596 5597 5598 5599 5600 5601 5602 5602 5602 5602 5603 5603 5604 5604 5605
5561 5562 5563 5565 5566 5566 5567 5567 5568 5568 5569 5570 5570 5571 5570 5570 5571 5571 5572 5573 5574 5574 5575 5576 5577 5578 5579 5580 5580 5581 5582 5583 5585 5585 5585 5586 5586 5586 5586 5587 5587 5588 5589
5548 5549 5550 5552 5553 5553 5553 5554 5554 5555 5555 5556 5556 5556 5556 5556 5556 5556 5557 5557 5559 5560 5560 5561 5562 5563 5564 5564 5564 5565 5566 5567 5568 5569 5569 5569 5569 5569 5569 5569 5570 5571 5572
5535 5536 5537 5538 5539 5540 5540 5541 5541 5542 5542 5542 5542 5542 5542 5541 5541 5541 5542 5543 5544 5545 5545 5546 5547 5547 5548 5548 5548 5548 5549 5549 5550 5551 5552 5553 5552 5552 5552 5552 5553 5554 5554
5522 5523 5524 5525 5526 5527 5527 5527 5528 5529 5529 5529 5529 5528 5528 5527 5527 5527 5527 5528 5529 5530 5530 5531 5531 5532 5532 5532 5532 5532 5532 5532 5533 5535 5535 5536 5536 5536 5536 5536 5536 5536 5536
5509 5510 5511 5512 5513 5514 5514 5514 5515 5515 5515 5515 5515 5514 5514 5514 5513 5513 5513 5513 5514 5514 5515 5515 5516 5516 5517 5517 5516 5516 5516 5516 5517 5517 5518 5519 5519 5519 5519 5519 5519 5519 5519
5496 5497 5498 5499 5500 5501 5501 5501 5501 5501 5501 5501 5501 5501 5501 5500 5499 5499 5499 5499 5499 5499 5500 5500 5501 5501 5502 5502 5501 5501 5501 5501 5501 5501 5502 5502 5502 5503 5503 5503 5503 5503 5503
5484 5484 5485 5486 5487 5487 5488 5488 5488 5488 5488 5488 5487 5487 5487 5486 5486 5485 5485 5485 5485 5485 5485 5486 5486 5486 5487 5486 5485 5485 5485 5485 5485 5485 5486 5487 5487 5487 5488 5488 5488 5487 5487
5471 5471 5472 5473 5474 5474 5475 5475 5474 5474 5474 5474 5474 5473 5473 5472 5472 5471 5471 5471 5471 5471 5471 5471 5471 5471 5471 5471 5470 5470 5470 5470 5470 5470 5471 5472 5472 5472 5472 5472 5472 5472 5472